Погода в Мае

Россия / Брянская область     52°29′44″N   32°15′58″E
темп.,
°C
ветер,
м/с
пор.,
м/с
влажн.,
%
обл.,
%
осадки,
мм/ч
давл.,
гПа
погр.,
м
21 июня, пн
пн2100:00+19вюв4118495 0.0 1018277
03:00+18в499023 0.0 1018181
06:00+18в4108590 0.0 1017203
09:00+23вюв477199 0.0 1017392
12:00+25в6107089 0.0 1016564
15:00+28вюв69617 0.0 1015958
18:00+26вюв6117026 0.0 1015741
21:00+21вюв499146 0.0 1016204
22 июня, вт
вт2200:00+20вюв5129417 0.0 1016270
03:00+18вюв489422 0.0 1016147
06:00+18вюв38904 0.0 1017154
09:00+23вюв58703 0.0 1017346
12:00+27вюв68585 0.0 1017736
15:00+29юв675612 0.0 1016980
18:00+27вюв5968100 0.0 1017645
21:00+22вюв499045 0.0 1017153
23 июня, ср
ср2300:00+20вюв38948 0.0 1017142
03:00+19вюв369446 0.0 101892
06:00+20вюв379241 0.0 1018139
09:00+25вюв5873100 0.0 1018349
12:00+28вюв6960100 0.0 1017721
15:00+30вюв5859100 0.0 10171072
18:00+28вюв587082 0.0 1017724
21:00+24вюв3788100 0.0 1017132
24 июня, чт
чт2400:00+22юв349390 0.0 101863
03:00+20вюв339285 0.0 101843
06:00+20в338665 0.0 101862
09:00+25вюв346844 0.0 1018303
12:00+28в455854 0.0 1018642
15:00+30юв35569 0.0 10171258
18:00+30юв34638 0.0 1016880
21:00+25ююв34825 0.0 101654
25 июня, пт
пт2500:00+21ююв22845 0.0 101713
03:00+21юв22892 0.0 101623
06:00+22ю22895 0.0 101636
09:00+26вюв22723 0.0 1016355
12:00+30юв34595 0.0 10161086
15:00+31ююв345013 0.0 10151721
18:00+30ююз34610 0.0 1014781
21:00+20вюв489399 0.9 1014117